When you browse on this site, cookies collect data to enhance your experience and personalize the content and advertising you see.
Visit our Privacy Policy to learn more. By continuing to use the site, you agree to this use of cookies and data.
  • In Lithuania
  • List of Countries
  • For 7 days
  • Water Temperature
  • Weather Map
  • Weather Widgets
  • user-avatar
    Login

    Hourly Weather Bolshoe Kashino

    Today, 19 September, Thursday

    Time Temperature Precipitation Wind Pressure Humidity
    00:00 +5°C° 0 mm 2 mps 730 mmHg 98%
    01:00 +4°C° 0 mm 2 mps 730 mmHg 98%
    02:00 +4°C° 0 mm 2 mps 731 mmHg 98%
    03:00 +4°C° 0 mm 2 mps 731 mmHg 98%
    04:00 +3°C° 0 mm 3 mps 732 mmHg 97%
    05:00 +4°C° 0 mm 3 mps 732 mmHg 96%
    06:00 +4°C° 0 mm 3 mps 733 mmHg 95%
    07:00 +4°C° 0 mm 3 mps 734 mmHg 93%
    08:00 +4°C° 0 mm 3 mps 734 mmHg 92%
    09:00 +5°C° 0.1 mm 3 mps 734 mmHg 87%
    10:00 +5°C° 0.1 mm 3 mps 735 mmHg 82%
    11:00 +7°C° 0.1 mm 3 mps 735 mmHg 77%
    12:00 +7°C° 0.1 mm 3 mps 736 mmHg 74%
    13:00 +8°C° 0.1 mm 3 mps 736 mmHg 71%
    14:00 +8°C° 0.1 mm 2 mps 736 mmHg 68%
    15:00 +8°C° 0.1 mm 2 mps 736 mmHg 72%
    16:00 +8°C° 0.1 mm 1 mps 736 mmHg 75%
    17:00 +8°C° 0.1 mm 1 mps 737 mmHg 78%
    18:00 +7°C° 0 mm 1 mps 737 mmHg 82%
    19:00 +6°C° 0 mm 1 mps 737 mmHg 86%
    20:00 +5°C° 0 mm 1 mps 737 mmHg 89%
    21:00 +5°C° 0 mm 1 mps 737 mmHg 91%
    22:00 +4°C° 0 mm 1 mps 737 mmHg 92%
    23:00 +4°C° 0 mm 1 mps 737 mmHg 94%

    Tomorrow, 20 September, Friday

    Time Temperature Precipitation Wind Pressure Humidity
    00:00 +3°C° 0 mm 1 mps 737 mmHg 94%
    01:00 +3°C° 0 mm 1 mps 737 mmHg 95%
    02:00 +3°C° 0 mm 1 mps 737 mmHg 96%
    03:00 +2°C° 0 mm 1 mps 737 mmHg 96%
    04:00 +2°C° 0 mm 1 mps 737 mmHg 96%
    05:00 +2°C° 0 mm 1 mps 737 mmHg 97%
    06:00 +3°C° 0 mm 1 mps 737 mmHg 92%
    07:00 +4°C° 0 mm 1 mps 737 mmHg 88%
    08:00 +6°C° 0 mm 1 mps 737 mmHg 84%
    09:00 +7°C° 0 mm 1 mps 737 mmHg 77%
    10:00 +8°C° 0 mm 1 mps 737 mmHg 70%
    11:00 +8°C° 0 mm 2 mps 737 mmHg 63%
    12:00 +9°C° 0.2 mm 2 mps 737 mmHg 63%
    13:00 +9°C° 0.2 mm 2 mps 737 mmHg 62%
    14:00 +9°C° 0.2 mm 3 mps 737 mmHg 62%
    15:00 +8°C° 0.2 mm 3 mps 737 mmHg 70%
    16:00 +5°C° 0.2 mm 3 mps 737 mmHg 78%
    17:00 +5°C° 0.2 mm 2 mps 737 mmHg 87%
    18:00 +4°C° 0 mm 2 mps 738 mmHg 90%
    19:00 +3°C° 0 mm 2 mps 738 mmHg 93%
    20:00 +1°C° 0 mm 2 mps 738 mmHg 96%
    21:00 +1°C° 0 mm 2 mps 739 mmHg 96%
    22:00 +1°C° 0 mm 2 mps 739 mmHg 96%
    23:00 -1°C° 0 mm 2 mps 739 mmHg 96%

    Day after tomorrow, 21 September, Saturday

    Time Temperature Precipitation Wind Pressure Humidity
    00:00 -1°C° 0 mm 2 mps 739 mmHg 96%
    01:00 +1°C° 0 mm 1 mps 739 mmHg 96%
    02:00 +1°C° 0 mm 1 mps 739 mmHg 96%
    03:00 0°C° 0 mm 1 mps 739 mmHg 96%
    04:00 0°C° 0 mm 1 mps 739 mmHg 96%
    05:00 0°C° 0 mm 1 mps 738 mmHg 96%
    06:00 -1°C° 0 mm 2 mps 738 mmHg 91%
    07:00 +2°C° 0 mm 2 mps 738 mmHg 87%
    08:00 +3°C° 0 mm 2 mps 738 mmHg 83%
    09:00 +4°C° 0 mm 2 mps 737 mmHg 76%
    10:00 +4°C° 0 mm 3 mps 737 mmHg 70%
    11:00 +6°C° 0 mm 4 mps 737 mmHg 63%
    12:00 +5°C° 0.2 mm 4 mps 736 mmHg 72%
    13:00 +4°C° 0.2 mm 4 mps 735 mmHg 82%
    14:00 +4°C° 0.2 mm 4 mps 735 mmHg 91%
    15:00 +4°C° 0.5 mm 4 mps 734 mmHg 93%
    16:00 +4°C° 0.5 mm 3 mps 733 mmHg 95%
    17:00 +4°C° 0.5 mm 3 mps 733 mmHg 97%
    18:00 +4°C° 0.1 mm 3 mps 732 mmHg 97%
    19:00 +5°C° 0.1 mm 3 mps 731 mmHg 98%
    20:00 +5°C° 0.1 mm 3 mps 731 mmHg 98%
    21:00 +7°C° 1.1 mm 3 mps 730 mmHg 97%
    22:00 +7°C° 1.1 mm 4 mps 729 mmHg 96%
    23:00 +8°C° 1.1 mm 5 mps 728 mmHg 95%

    22 September, Sunday

    Time Temperature Precipitation Wind Pressure Humidity
    00:00 +8°C° 0.6 mm 5 mps 727 mmHg 94%
    01:00 +8°C° 0.6 mm 6 mps 726 mmHg 93%
    02:00 +8°C° 0.6 mm 6 mps 725 mmHg 92%
    03:00 +5°C° 0.2 mm 7 mps 725 mmHg 89%
    04:00 +4°C° 0.2 mm 8 mps 726 mmHg 87%
    05:00 +1°C° 0.2 mm 8 mps 726 mmHg 85%
    06:00 +1°C° 0.2 mm 9 mps 727 mmHg 85%
    07:00 +1°C° 0.2 mm 9 mps 728 mmHg 84%
    08:00 0°C° 0.2 mm 9 mps 729 mmHg 84%
    09:00 +1°C° 0 mm 9 mps 731 mmHg 76%
    10:00 +2°C° 0 mm 9 mps 732 mmHg 68%
    11:00 +3°C° 0 mm 9 mps 733 mmHg 59%
    12:00 +4°C° 0 mm 8 mps 734 mmHg 58%
    13:00 +5°C° 0 mm 8 mps 735 mmHg 57%
    14:00 +5°C° 0 mm 7 mps 736 mmHg 56%
    15:00 +4°C° 0 mm 6 mps 736 mmHg 59%
    16:00 +5°C° 0 mm 5 mps 737 mmHg 63%
    17:00 +4°C° 0 mm 4 mps 738 mmHg 66%
    18:00 +3°C° 0 mm 3 mps 738 mmHg 73%
    19:00 +2°C° 0 mm 3 mps 738 mmHg 79%
    20:00 +1°C° 0 mm 3 mps 739 mmHg 85%
    21:00 +1°C° 0 mm 2 mps 739 mmHg 88%
    22:00 +1°C° 0 mm 2 mps 739 mmHg 90%
    23:00 -1°C° 0 mm 2 mps 740 mmHg 93%

    23 September, Monday

    Time Temperature Precipitation Wind Pressure Humidity
    00:00 -1°C° 0 mm 2 mps 740 mmHg 94%
    01:00 -1°C° 0 mm 2 mps 740 mmHg 94%
    02:00 -2°C° 0 mm 2 mps 740 mmHg 94%
    03:00 -2°C° 0 mm 2 mps 740 mmHg 95%
    04:00 -2°C° 0 mm 2 mps 740 mmHg 96%
    05:00 -2°C° 0 mm 2 mps 740 mmHg 96%
    06:00 -1°C° 0 mm 2 mps 741 mmHg 90%
    07:00 +2°C° 0 mm 2 mps 741 mmHg 83%
    08:00 +3°C° 0 mm 2 mps 741 mmHg 77%
    09:00 +4°C° 0 mm 2 mps 741 mmHg 72%
    10:00 +5°C° 0 mm 2 mps 741 mmHg 67%
    11:00 +6°C° 0 mm 2 mps 741 mmHg 63%
    12:00 +6°C° 0.1 mm 2 mps 740 mmHg 69%
    13:00 +5°C° 0.1 mm 2 mps 740 mmHg 76%
    14:00 +5°C° 0.1 mm 2 mps 739 mmHg 83%
    15:00 +4°C° 0.5 mm 2 mps 739 mmHg 87%
    16:00 +4°C° 0.5 mm 1 mps 739 mmHg 92%
    17:00 +4°C° 0.5 mm 1 mps 738 mmHg 97%
    18:00 +4°C° 0.4 mm 1 mps 738 mmHg 97%
    19:00 +4°C° 0.4 mm 1 mps 738 mmHg 98%
    20:00 +3°C° 0.4 mm 1 mps 738 mmHg 98%
    21:00 +4°C° 0.1 mm 1 mps 737 mmHg 98%
    22:00 +4°C° 0.1 mm 1 mps 737 mmHg 98%
    23:00 +4°C° 0.1 mm 1 mps 737 mmHg 98%

    24 September, Tuesday

    Time Temperature Precipitation Wind Pressure Humidity
    00:00 +3°C° 0.1 mm 2 mps 736 mmHg 98%
    01:00 +3°C° 0.1 mm 2 mps 736 mmHg 98%
    02:00 +3°C° 0.1 mm 2 mps 735 mmHg 97%
    03:00 +3°C° 0.1 mm 2 mps 735 mmHg 97%
    04:00 +3°C° 0.1 mm 2 mps 735 mmHg 97%
    05:00 +3°C° 0.1 mm 2 mps 734 mmHg 97%
    06:00 +3°C° 0.1 mm 2 mps 734 mmHg 97%
    07:00 +4°C° 0.1 mm 2 mps 734 mmHg 97%
    08:00 +4°C° 0.1 mm 2 mps 734 mmHg 96%
    09:00 +4°C° 0.1 mm 2 mps 734 mmHg 96%
    10:00 +5°C° 0.1 mm 2 mps 734 mmHg 95%
    11:00 +5°C° 0.1 mm 2 mps 734 mmHg 94%
    12:00 +5°C° 0.1 mm 2 mps 734 mmHg 93%
    13:00 +5°C° 0.1 mm 2 mps 733 mmHg 93%
    14:00 +5°C° 0.1 mm 2 mps 733 mmHg 93%
    15:00 +5°C° 0.1 mm 2 mps 733 mmHg 93%
    16:00 +5°C° 0.1 mm 2 mps 733 mmHg 94%
    17:00 +5°C° 0.1 mm 2 mps 733 mmHg 94%
    18:00 +3°C° 0.2 mm 3 mps 733 mmHg 95%
    19:00 +3°C° 0.2 mm 3 mps 734 mmHg 95%
    20:00 +3°C° 0.2 mm 3 mps 734 mmHg 95%
    21:00 +3°C° 0.2 mm 3 mps 734 mmHg 96%
    22:00 +3°C° 0.2 mm 3 mps 734 mmHg 96%
    23:00 +3°C° 0.2 mm 3 mps 734 mmHg 96%
    Show more